When you browse on this site, cookies collect data to enhance your experience and personalize the content and advertising you see.
Visit our Privacy Policy to learn more. By continuing to use the site, you agree to this use of cookies and data.
  • In Sweden
  • List of Countries
  • For 7 days
  • Water Temperature
  • Satellite Maps
  • Weather Map
  • Weather Widgets
  • user-avatar
    Login

    Hourly Weather Wilkoszewice

    Today, 23 April, Tuesday

    Time Temperature Precipitation Wind Pressure Humidity
    00:00 +8°C° 0 mm 6 mps 747 mmHg 56%
    01:00 +8°C° 0 mm 6 mps 747 mmHg 55%
    02:00 +6°C° 0 mm 7 mps 747 mmHg 55%
    03:00 +6°C° 0 mm 7 mps 747 mmHg 54%
    04:00 +6°C° 0 mm 7 mps 746 mmHg 54%
    05:00 +6°C° 0 mm 8 mps 746 mmHg 53%
    06:00 +7°C° 0 mm 8 mps 746 mmHg 52%
    07:00 +9°C° 0 mm 8 mps 746 mmHg 53%
    08:00 +10°C° 0 mm 8 mps 746 mmHg 51%
    09:00 +12°C° 0 mm 9 mps 746 mmHg 48%
    10:00 +13°C° 0 mm 10 mps 746 mmHg 46%
    11:00 +14°C° 0 mm 10 mps 746 mmHg 45%
    12:00 +16°C° 0 mm 10 mps 745 mmHg 43%
    13:00 +17°C° 0 mm 10 mps 745 mmHg 42%
    14:00 +17°C° 0 mm 10 mps 745 mmHg 42%
    15:00 +17°C° 0 mm 10 mps 745 mmHg 43%
    16:00 +17°C° 0 mm 9 mps 744 mmHg 43%
    17:00 +16°C° 0 mm 9 mps 744 mmHg 46%
    18:00 +15°C° 0 mm 8 mps 744 mmHg 49%
    19:00 +14°C° 0 mm 7 mps 744 mmHg 52%
    20:00 +12°C° 0 mm 7 mps 744 mmHg 52%
    21:00 +12°C° 0 mm 8 mps 744 mmHg 53%
    22:00 +11°C° 0 mm 8 mps 744 mmHg 54%
    23:00 +11°C° 0 mm 8 mps 744 mmHg 55%

    Tomorrow, 24 April, Wednesday

    Time Temperature Precipitation Wind Pressure Humidity
    00:00 +11°C° 0 mm 7 mps 744 mmHg 56%
    01:00 +10°C° 0 mm 7 mps 744 mmHg 57%
    02:00 +10°C° 0 mm 7 mps 744 mmHg 61%
    03:00 +10°C° 0 mm 7 mps 744 mmHg 66%
    04:00 +9°C° 0 mm 7 mps 743 mmHg 70%
    05:00 +10°C° 0 mm 7 mps 744 mmHg 68%
    06:00 +10°C° 0 mm 7 mps 744 mmHg 67%
    07:00 +10°C° 0 mm 8 mps 744 mmHg 66%
    08:00 +12°C° 0 mm 8 mps 744 mmHg 63%
    09:00 +15°C° 0 mm 8 mps 744 mmHg 61%
    10:00 +16°C° 0 mm 8 mps 744 mmHg 58%
    11:00 +16°C° 0 mm 8 mps 744 mmHg 60%
    12:00 +15°C° 0 mm 7 mps 744 mmHg 62%
    13:00 +15°C° 0 mm 7 mps 744 mmHg 64%
    14:00 +15°C° 0 mm 7 mps 744 mmHg 65%
    15:00 +15°C° 0 mm 7 mps 744 mmHg 66%
    16:00 +15°C° 0 mm 7 mps 744 mmHg 67%
    17:00 +14°C° 0 mm 7 mps 744 mmHg 69%
    18:00 +14°C° 0 mm 6 mps 744 mmHg 71%
    19:00 +13°C° 0 mm 6 mps 744 mmHg 73%
    20:00 +13°C° 0 mm 6 mps 744 mmHg 74%
    21:00 +13°C° 0 mm 6 mps 744 mmHg 75%
    22:00 +13°C° 0 mm 6 mps 744 mmHg 77%
    23:00 +13°C° 0 mm 6 mps 744 mmHg 79%

    Day after tomorrow, 25 April, Thursday

    Time Temperature Precipitation Wind Pressure Humidity
    00:00 +13°C° 0 mm 5 mps 744 mmHg 81%
    01:00 +12°C° 0 mm 5 mps 743 mmHg 83%
    02:00 +12°C° 0 mm 5 mps 743 mmHg 84%
    03:00 +12°C° 0 mm 5 mps 743 mmHg 85%
    04:00 +12°C° 0 mm 5 mps 743 mmHg 86%
    05:00 +13°C° 0 mm 5 mps 743 mmHg 81%
    06:00 +15°C° 0 mm 5 mps 744 mmHg 76%
    07:00 +16°C° 0 mm 5 mps 744 mmHg 72%
    08:00 +18°C° 0 mm 4 mps 744 mmHg 66%
    09:00 +20°C° 0 mm 4 mps 744 mmHg 60%
    10:00 +21°C° 0 mm 4 mps 744 mmHg 54%
    11:00 +22°C° 0 mm 4 mps 744 mmHg 53%
    12:00 +22°C° 0 mm 4 mps 744 mmHg 52%
    13:00 +23°C° 0 mm 4 mps 744 mmHg 51%
    14:00 +23°C° 0 mm 4 mps 744 mmHg 52%
    15:00 +22°C° 0 mm 3 mps 744 mmHg 54%
    16:00 +23°C° 0 mm 2 mps 744 mmHg 56%
    17:00 +20°C° 0 mm 2 mps 744 mmHg 60%
    18:00 +19°C° 0 mm 2 mps 744 mmHg 63%
    19:00 +18°C° 0 mm 2 mps 744 mmHg 67%
    20:00 +17°C° 0 mm 2 mps 744 mmHg 69%
    21:00 +17°C° 0 mm 2 mps 744 mmHg 70%
    22:00 +16°C° 0 mm 2 mps 744 mmHg 71%
    23:00 +16°C° 0 mm 2 mps 744 mmHg 74%

    26 April, Friday

    Time Temperature Precipitation Wind Pressure Humidity
    00:00 +15°C° 0 mm 2 mps 743 mmHg 76%
    01:00 +14°C° 0 mm 3 mps 743 mmHg 78%
    02:00 +14°C° 0 mm 3 mps 743 mmHg 79%
    03:00 +13°C° 0 mm 3 mps 743 mmHg 80%
    04:00 +13°C° 0 mm 3 mps 742 mmHg 81%
    05:00 +15°C° 0 mm 4 mps 742 mmHg 77%
    06:00 +17°C° 0 mm 4 mps 742 mmHg 72%
    07:00 +19°C° 0 mm 4 mps 742 mmHg 68%
    08:00 +21°C° 0 mm 4 mps 741 mmHg 60%
    09:00 +23°C° 0 mm 4 mps 741 mmHg 53%
    10:00 +25°C° 0 mm 4 mps 741 mmHg 46%
    11:00 +26°C° 0 mm 4 mps 741 mmHg 44%
    12:00 +26°C° 0 mm 4 mps 740 mmHg 43%
    13:00 +27°C° 0 mm 4 mps 740 mmHg 42%
    14:00 +27°C° 0 mm 4 mps 740 mmHg 42%
    15:00 +27°C° 0 mm 5 mps 740 mmHg 43%
    16:00 +27°C° 0 mm 5 mps 739 mmHg 43%
    17:00 +25°C° 0 mm 4 mps 739 mmHg 49%
    18:00 +24°C° 0 mm 3 mps 739 mmHg 55%
    19:00 +21°C° 0 mm 2 mps 739 mmHg 61%
    20:00 +20°C° 0 mm 3 mps 739 mmHg 63%
    21:00 +19°C° 0 mm 3 mps 739 mmHg 66%
    22:00 +19°C° 0 mm 3 mps 739 mmHg 68%
    23:00 +18°C° 0 mm 3 mps 739 mmHg 69%

    27 April, Saturday

    Time Temperature Precipitation Wind Pressure Humidity
    00:00 +17°C° 0 mm 3 mps 739 mmHg 70%
    01:00 +17°C° 0 mm 3 mps 739 mmHg 71%
    02:00 +16°C° 0 mm 3 mps 738 mmHg 77%
    03:00 +14°C° 0 mm 3 mps 738 mmHg 83%
    04:00 +14°C° 0 mm 3 mps 738 mmHg 89%
    05:00 +14°C° 0 mm 3 mps 738 mmHg 88%
    06:00 +15°C° 0 mm 4 mps 739 mmHg 87%
    07:00 +17°C° 0 mm 4 mps 739 mmHg 86%
    08:00 +16°C° 0.1 mm 5 mps 739 mmHg 82%
    09:00 +17°C° 0.1 mm 6 mps 740 mmHg 78%
    10:00 +17°C° 0.1 mm 7 mps 740 mmHg 73%
    11:00 +15°C° 0.1 mm 6 mps 740 mmHg 76%
    12:00 +13°C° 0.1 mm 6 mps 740 mmHg 78%
    13:00 +10°C° 0.1 mm 5 mps 740 mmHg 80%
    14:00 +11°C° 0 mm 6 mps 741 mmHg 78%
    15:00 +11°C° 0 mm 6 mps 741 mmHg 76%
    16:00 +11°C° 0 mm 6 mps 741 mmHg 74%
    17:00 +10°C° 0 mm 5 mps 741 mmHg 75%
    18:00 +11°C° 0 mm 4 mps 742 mmHg 76%
    19:00 +10°C° 0 mm 3 mps 742 mmHg 77%
    20:00 +10°C° 0.1 mm 4 mps 743 mmHg 81%
    21:00 +10°C° 0.1 mm 4 mps 743 mmHg 85%
    22:00 +10°C° 0.1 mm 4 mps 743 mmHg 88%
    23:00 +10°C° 0 mm 4 mps 743 mmHg 89%

    28 April, Sunday

    Time Temperature Precipitation Wind Pressure Humidity
    00:00 +8°C° 0 mm 4 mps 743 mmHg 90%
    01:00 +9°C° 0 mm 3 mps 743 mmHg 90%
    02:00 +9°C° 0 mm 3 mps 743 mmHg 90%
    03:00 +9°C° 0 mm 3 mps 743 mmHg 91%
    04:00 +9°C° 0 mm 3 mps 744 mmHg 91%
    05:00 +9°C° 0 mm 3 mps 744 mmHg 88%
    06:00 +10°C° 0 mm 4 mps 744 mmHg 85%
    07:00 +11°C° 0 mm 4 mps 744 mmHg 82%
    08:00 +11°C° 0.1 mm 4 mps 744 mmHg 80%
    09:00 +12°C° 0.1 mm 4 mps 744 mmHg 78%
    10:00 +12°C° 0.1 mm 3 mps 745 mmHg 76%
    11:00 +13°C° 0.1 mm 3 mps 744 mmHg 69%
    12:00 +16°C° 0.1 mm 3 mps 744 mmHg 63%
    13:00 +17°C° 0.1 mm 2 mps 744 mmHg 57%
    14:00 +17°C° 0.2 mm 2 mps 744 mmHg 56%
    15:00 +17°C° 0.2 mm 2 mps 744 mmHg 54%
    16:00 +18°C° 0.2 mm 3 mps 744 mmHg 53%
    17:00 +16°C° 0 mm 2 mps 744 mmHg 61%
    18:00 +14°C° 0 mm 2 mps 745 mmHg 68%
    19:00 +13°C° 0 mm 2 mps 745 mmHg 76%
    20:00 +12°C° 0 mm 2 mps 745 mmHg 80%
    21:00 +10°C° 0 mm 2 mps 746 mmHg 83%
    22:00 +10°C° 0 mm 1 mps 746 mmHg 87%
    23:00 +10°C° 0 mm 1 mps 746 mmHg 88%
    Show more